Date,TemperatureHighF,TemperatureAvgF,TemperatureLowF,DewpointHighF,DewpointAvgF,DewpointLowF,HumidityHigh,HumidityAvg,HumidityLow,PressureMaxIn,PressureMinIn,WindSpeedMaxMPH,WindSpeedAvgMPH,GustSpeedMaxMPH,PrecipitationSumIn
2013-6-17,62.2,61.5,60.4,60.9,60.4,59.8,98,96,95,29.95,29.94,2,0,2,0.00
2013-6-18,73.6,62.4,57.9,62.0,59.3,57.2,99,90,65,30.01,29.94,14,1,14,0.25
2013-6-19,78.6,64.7,55.6,58.0,51.5,40.4,97,67,30,30.22,29.97,10,2,11,0.02
2013-6-20,83.8,66.2,50.0,56.3,50.5,46.3,93,61,31,30.33,30.22,9,2,11,0.00
2013-6-21,87.6,71.2,57.9,60.6,55.2,50.1,81,60,28,30.31,30.25,10,1,11,0.00
2013-6-22,88.0,73.4,60.4,63.8,59.7,56.9,90,64,43,30.29,30.16,12,2,18,0.11
2013-6-23,93.4,78.1,64.6,70.2,62.9,56.6,80,61,46,30.21,30.03,12,3,19,0.01
2013-6-24,95.4,84.3,70.9,70.9,66.5,61.9,82,57,41,30.07,29.92,11,4,15,0.00
2013-6-25,93.4,79.7,70.3,68.9,65.4,61.4,83,63,43,29.98,29.77,11,3,19,0.04
2013-6-26,79.9,76.1,71.1,72.1,66.8,64.9,82,73,63,29.88,29.81,8,2,8,0.31
2013-6-27,73.4,65.4,61.3,63.6,61.3,58.4,92,87,70,29.93,29.81,4,1,4,0.06
2013-6-28,84.2,69.3,58.8,72.2,64.0,57.0,96,84,60,29.82,29.53,8,2,12,0.26
2013-6-29,86.5,76.5,70.9,68.1,66.0,63.3,87,71,50,29.76,29.56,11,3,15,0.01
2013-6-30,87.6,77.3,67.6,69.8,66.5,64.3,91,71,51,29.99,29.76,8,2,8,0.00
2013-7-1,83.1,74.8,71.4,71.2,68.6,66.5,92,81,64,30.13,29.99,8,1,8,2.21
2013-7-2,85.1,72.6,61.5,72.6,66.5,57.6,91,82,65,30.28,30.12,8,1,8,0.00
2013-7-3,90.3,75.3,60.6,72.8,65.8,57.7,93,74,52,30.27,30.18,11,3,14,0.01
2013-7-4,94.6,82.7,72.3,72.6,70.1,68.3,89,67,47,30.26,30.14,11,3,14,0.00
2013-7-5,97.0,84.6,75.7,72.6,70.3,68.5,81,64,45,30.21,30.08,11,3,11,0.01
2013-7-6,92.3,82.2,74.3,70.6,68.0,59.8,82,63,45,30.13,30.04,14,3,20,0.00
2013-7-7,93.4,79.1,67.6,73.1,66.3,58.8,82,66,48,30.08,29.95,8,1,14,0.01
2013-7-8,89.1,76.8,66.0,71.1,67.9,61.6,87,75,54,30.14,29.97,8,1,10,0.18
2013-7-9,75.2,69.1,65.1,65.5,62.7,60.9,89,80,71,30.17,30.11,4,1,6,0.01
2013-7-10,87.6,73.7,66.4,73.6,67.0,61.3,89,80,58,30.14,29.85,8,1,14,0.15
2013-7-11,84.9,76.3,71.4,71.8,69.0,64.4,90,79,62,29.99,29.82,6,1,11,0.04
2013-7-12,81.5,72.4,67.1,64.6,58.5,54.2,86,63,44,30.27,29.99,10,2,11,0.00
2013-7-13,84.2,72.5,65.8,68.3,62.1,55.8,86,70,57,30.37,30.26,4,1,5,0.01
2013-7-14,93.9,79.5,69.8,70.7,68.2,65.8,90,70,47,30.36,30.26,8,1,8,0.00
2013-7-15,95.9,80.7,71.1,70.8,68.7,66.3,89,69,44,30.26,30.14,8,1,10,0.01
2013-7-16,95.7,80.7,68.9,69.7,65.8,62.5,82,62,41,30.23,30.17,12,2,12,0.00
2013-7-17,97.3,82.6,70.3,71.9,67.8,64.4,85,63,42,30.24,30.03,8,2,9,0.01
2013-7-18,95.9,82.8,74.8,72.0,68.0,64.7,75,62,44,30.07,29.99,8,2,10,0.00
2013-7-19,98.8,85.2,72.5,73.0,69.5,66.0,82,61,42,30.00,29.76,16,4,22,0.01
2013-7-20,93.7,83.6,74.3,71.7,67.3,60.5,70,58,46,29.86,29.70,14,3,15,0.00
2013-7-21,88.0,75.3,66.2,64.3,60.9,57.9,78,62,43,30.05,29.86,6,1,6,0.01
2013-7-22,89.8,73.7,66.7,67.7,63.5,60.9,87,71,47,30.08,29.95,7,1,7,0.00
2013-7-23,80.6,72.0,68.5,69.6,66.3,61.7,88,82,67,29.95,29.59,6,0,8,2.00
2013-7-24,86.4,75.7,63.9,70.2,64.0,50.6,90,69,48,30.03,29.63,7,0,12,0.00
2013-7-25,64.4,60.8,58.5,56.9,51.8,46.8,88,73,62,30.17,30.03,8,2,12,0.37
2013-7-26,74.8,66.0,59.9,64.8,59.0,56.0,88,79,67,30.13,29.99,12,3,12,0.22
2013-7-27,87.4,72.7,59.2,64.3,59.5,53.9,85,65,43,30.10,30.04,9,2,9,0.01
2013-7-28,84.6,71.9,64.0,68.2,62.8,59.1,86,74,57,30.08,30.02,7,1,8,0.00
2013-7-29,88.0,73.2,66.7,68.2,64.6,60.6,88,76,50,30.10,30.01,8,1,8,0.25
2013-7-30,84.6,72.4,60.6,64.4,57.6,53.9,89,62,40,30.15,30.08,11,2,13,0.00
2013-7-31,73.0,72.9,64.9,58.1,57.9,57.6,78,59,59,30.14,30.11,2,2,2,0.00
2013-8-1,81.3,69.7,60.4,62.4,59.9,56.6,88,72,51,30.11,29.93,8,1,10,0.06
2013-8-2,84.9,71.6,64.2,63.6,60.4,56.1,88,70,42,29.93,29.84,16,2,17,0.52
2013-8-3,82.6,70.2,62.1,61.6,58.6,54.8,85,68,48,29.92,29.83,13,2,13,0.00
2013-8-4,82.2,64.0,59.5,58.3,53.0,50.6,77,68,42,30.04,29.87,8,2,12,0.00
2013-8-5,79.5,64.8,54.7,51.2,47.1,38.8,78,56,25,30.20,30.03,15,3,16,0.01
2013-8-6,83.7,64.9,50.5,56.8,50.7,46.3,87,63,36,30.30,30.19,6,1,7,0.00
2013-8-7,84.6,67.8,54.0,58.0,53.3,49.6,87,63,34,30.33,30.25,8,1,10,0.00
2013-8-8,84.6,73.2,64.6,67.0,61.7,54.3,81,68,55,30.27,30.15,8,2,10,0.01
2013-8-9,75.6,72.9,71.2,70.1,66.3,63.0,85,80,73,30.17,29.88,9,2,12,0.81
2013-8-10,84.9,73.6,62.2,67.2,59.5,51.1,86,63,40,30.16,29.93,14,3,14,0.00
2013-8-11,83.3,67.3,54.7,59.0,53.3,49.5,84,63,40,30.23,30.14,16,2,16,0.00
2013-8-12,87.4,69.9,58.3,61.6,55.8,53.0,84,63,40,30.18,30.06,8,1,11,0.00
2013-8-13,77.7,68.9,64.2,63.6,59.9,56.1,84,73,59,30.07,29.82,4,0,4,0.05
2013-8-14,76.1,66.2,60.1,60.7,52.6,48.3,85,63,45,30.10,29.80,20,4,21,0.00
2013-8-15,60.4,55.2,52.3,49.0,47.9,47.0,83,77,66,30.18,30.10,3,0,4,0.00
2013-8-18,75.9,69.0,65.3,59.2,56.7,55.3,71,65,55,30.29,30.22,3,1,4,0.00
2013-8-19,82.6,70.4,59.7,60.9,57.3,54.2,84,65,45,30.22,30.10,11,2,11,0.00
2013-8-20,90.1,73.7,61.3,63.3,59.0,54.8,82,62,38,30.24,30.12,9,2,11,0.00
2013-8-21,92.3,75.0,61.2,67.6,60.3,56.0,84,62,40,30.29,30.16,8,1,13,0.01
2013-8-22,90.0,76.5,65.1,68.4,62.2,57.4,77,62,44,30.18,29.96,9,1,13,0.00
2013-8-23,82.6,72.9,63.1,63.1,55.7,49.2,75,56,37,30.29,29.96,17,4,17,0.00
2013-8-24,84.4,65.7,54.3,51.6,48.3,43.7,76,56,28,30.48,30.29,8,2,8,0.00
2013-8-25,86.7,68.0,52.3,55.7,51.6,47.5,84,59,30,30.51,30.32,11,2,11,0.01
2013-8-26,81.7,72.2,63.1,63.5,58.4,53.6,74,62,52,30.32,30.01,11,2,12,0.00
2013-8-27,90.1,76.0,67.8,65.5,62.1,58.4,80,63,44,30.05,29.97,8,1,9,0.00
2013-8-28,89.2,73.1,62.8,65.8,60.6,57.2,83,66,45,30.13,29.99,6,1,8,0.00
2013-8-29,67.5,65.3,61.5,60.4,56.7,53.0,80,74,69,30.23,30.10,9,2,11,0.02
2013-8-30,89.2,71.1,57.9,65.2,58.6,53.1,85,66,45,30.18,29.96,9,2,9,0.00
2013-8-31,83.1,74.6,68.5,67.9,64.5,60.3,84,71,59,29.98,29.92,5,1,8,0.33
2013-9-1,88.0,76.1,71.2,68.2,64.5,61.1,77,68,52,30.03,29.93,8,2,10,0.01
2013-9-2,80.6,74.8,72.1,69.4,65.5,63.9,79,73,64,30.01,29.85,4,0,4,0.07
2013-9-3,83.8,73.2,64.0,66.4,61.8,52.5,84,68,54,29.95,29.84,8,1,11,0.01
2013-9-4,86.0,68.9,57.0,58.8,53.7,50.5,80,60,39,30.06,29.95,11,3,17,0.00
2013-9-5,74.1,63.6,52.0,56.4,49.1,40.8,78,61,33,30.30,30.00,12,2,15,0.06
2013-9-6,75.2,57.3,43.2,44.5,41.1,36.8,83,58,27,30.39,30.23,8,2,12,0.00
2013-9-7,82.6,61.5,46.9,55.4,47.1,41.4,82,61,35,30.26,30.03,10,1,10,0.00
2013-9-8,72.3,66.2,58.1,56.7,51.3,40.1,70,60,37,30.14,29.89,18,4,21,0.00
2013-9-9,73.8,56.5,42.4,47.6,41.4,37.6,84,60,34,30.37,30.14,9,2,9,0.00
2013-9-10,77.5,63.9,53.6,64.4,53.8,45.1,80,70,61,30.30,30.16,7,1,11,0.06
2013-9-11,85.5,71.9,67.6,68.8,63.9,62.1,85,76,56,30.22,30.18,4,0,7,0.01